Year,Month,Day,Hour,Minute,Value (Times are PST for temperature in C)
2010,01,18,00,00,8.10
2010,01,18,00,01,8.10
2010,01,18,00,02,8.10
2010,01,18,00,03,8.10
2010,01,18,00,04,8.10
2010,01,18,00,05,8.10
2010,01,18,00,06,8.00
2010,01,18,00,07,8.00
2010,01,18,00,08,7.90
2010,01,18,00,09,7.90
2010,01,18,00,10,7.90
2010,01,18,00,11,7.90
2010,01,18,00,12,7.80
2010,01,18,00,13,7.80
2010,01,18,00,14,7.80
2010,01,18,00,15,7.80
2010,01,18,00,16,7.70
2010,01,18,00,17,7.70
2010,01,18,00,18,7.60
2010,01,18,00,19,7.60
2010,01,18,00,20,7.60
2010,01,18,00,21,7.50
2010,01,18,00,22,7.50
2010,01,18,00,23,7.40
2010,01,18,00,24,7.40
2010,01,18,00,25,7.40
2010,01,18,00,26,7.40
2010,01,18,00,27,7.40
2010,01,18,00,28,7.40
2010,01,18,00,29,7.40
2010,01,18,00,30,7.40
2010,01,18,00,31,7.40
2010,01,18,00,32,7.60
2010,01,18,00,33,7.70
2010,01,18,00,34,7.80
2010,01,18,00,35,7.80
2010,01,18,00,36,7.90
2010,01,18,00,37,8.10
2010,01,18,00,38,8.20
2010,01,18,00,39,8.30
2010,01,18,00,40,8.30
2010,01,18,00,41,8.40
2010,01,18,00,42,8.40
2010,01,18,00,43,8.40
2010,01,18,00,44,8.50
2010,01,18,00,45,8.60
2010,01,18,00,46,8.60
2010,01,18,00,47,8.70
2010,01,18,00,48,8.80
2010,01,18,00,49,8.90
2010,01,18,00,50,9.10
2010,01,18,00,51,9.20
2010,01,18,00,52,9.30
2010,01,18,00,53,9.40
2010,01,18,00,54,9.40
2010,01,18,00,55,9.50
2010,01,18,00,56,9.50
2010,01,18,00,57,9.50
2010,01,18,00,58,9.40
2010,01,18,00,59,9.40
2010,01,18,01,00,9.40
2010,01,18,01,01,9.40
2010,01,18,01,02,9.40
2010,01,18,01,03,9.30
2010,01,18,01,04,9.30
2010,01,18,01,05,9.40
2010,01,18,01,06,9.40
2010,01,18,01,07,9.40
2010,01,18,01,08,9.40
2010,01,18,01,09,9.40
2010,01,18,01,10,9.40
2010,01,18,01,11,9.40
2010,01,18,01,12,9.40
2010,01,18,01,13,9.40
2010,01,18,01,14,9.40
2010,01,18,01,15,9.40
2010,01,18,01,16,9.50
2010,01,18,01,17,9.50
2010,01,18,01,18,9.50
2010,01,18,01,19,9.50
2010,01,18,01,20,9.60
2010,01,18,01,21,9.60
2010,01,18,01,22,9.60
2010,01,18,01,23,9.70
2010,01,18,01,24,9.70
2010,01,18,01,25,9.70
2010,01,18,01,26,9.70
2010,01,18,01,27,9.70
2010,01,18,01,28,9.70
2010,01,18,01,29,9.70
2010,01,18,01,30,9.70
2010,01,18,01,31,9.70
2010,01,18,01,32,9.70
2010,01,18,01,33,9.70
2010,01,18,01,34,9.70
2010,01,18,01,35,9.70
2010,01,18,01,36,9.70
2010,01,18,01,37,9.70
2010,01,18,01,38,9.70
2010,01,18,01,39,9.80
2010,01,18,01,40,9.80
2010,01,18,01,41,9.90
2010,01,18,01,42,9.90
2010,01,18,01,43,9.90
2010,01,18,01,44,9.90
2010,01,18,01,45,10.00
2010,01,18,01,46,10.00
2010,01,18,01,47,10.10
2010,01,18,01,48,10.10
2010,01,18,01,49,10.20
2010,01,18,01,50,10.20
2010,01,18,01,51,10.20
2010,01,18,01,52,10.20
2010,01,18,01,53,10.30
2010,01,18,01,54,10.30
2010,01,18,01,55,10.30
2010,01,18,13,57,10.10
2010,01,18,13,58,10.10
2010,01,18,13,59,10.10
2010,01,18,14,00,10.20
2010,01,18,14,01,10.20
2010,01,18,14,02,10.20
2010,01,18,14,03,10.10
2010,01,18,14,04,10.10
2010,01,18,14,05,10.00
2010,01,18,14,06,10.00
2010,01,18,14,07,9.90
2010,01,18,14,08,9.90
2010,01,18,14,09,9.90
2010,01,18,14,10,9.80
2010,01,18,14,11,9.80
2010,01,18,14,12,9.70
2010,01,18,14,13,9.70
2010,01,18,14,14,9.70
2010,01,18,14,15,9.60
2010,01,18,14,16,9.60
2010,01,18,14,17,9.60
2010,01,18,14,18,9.60
2010,01,18,14,19,9.50
2010,01,18,14,20,9.50
2010,01,18,14,21,9.50
2010,01,18,14,22,9.50
2010,01,18,14,23,9.60
2010,01,18,14,24,9.60
2010,01,18,14,25,9.60
2010,01,18,14,26,9.70
2010,01,18,14,27,9.80
2010,01,18,14,28,9.80
2010,01,18,14,29,9.80
2010,01,18,14,30,9.80
2010,01,18,14,31,9.80
2010,01,18,14,32,9.80
2010,01,18,14,33,9.90
2010,01,18,14,34,9.90
2010,01,18,14,35,9.90
2010,01,18,14,36,9.90
2010,01,18,14,37,9.90
2010,01,18,14,38,9.90
2010,01,18,14,39,9.90
2010,01,18,14,40,9.90
2010,01,18,14,41,9.90
2010,01,18,14,42,9.90
2010,01,18,14,43,9.90
2010,01,18,14,44,9.90
2010,01,18,14,45,9.90
2010,01,18,14,46,10.00
2010,01,18,14,47,10.10
2010,01,18,14,48,10.10
2010,01,18,14,49,10.10
2010,01,18,14,50,10.20
2010,01,18,14,51,10.20
2010,01,18,14,52,10.20
2010,01,18,14,53,10.20
2010,01,18,14,54,10.20
2010,01,18,14,55,10.20
2010,01,18,14,56,10.20
2010,01,18,14,57,10.20
2010,01,18,14,58,10.20
2010,01,18,14,59,10.20
2010,01,18,15,00,10.20
2010,01,18,15,01,10.20
2010,01,18,15,02,10.20
2010,01,18,15,03,10.20
2010,01,18,15,04,10.10
2010,01,18,15,05,10.10
2010,01,18,15,06,10.10
2010,01,18,15,07,10.10
2010,01,18,15,08,10.10
2010,01,18,15,09,10.10
2010,01,18,15,10,10.10
2010,01,18,15,11,10.00
2010,01,18,15,12,10.00
2010,01,18,15,13,10.00
2010,01,18,15,14,9.90
2010,01,18,15,15,9.90
2010,01,18,15,16,9.90
2010,01,18,15,17,10.00
2010,01,18,15,18,10.00
2010,01,18,15,19,10.10
2010,01,18,15,20,10.10
2010,01,18,15,21,10.10
2010,01,18,15,22,10.10
2010,01,18,15,23,10.20
2010,01,18,15,24,10.20
2010,01,18,15,25,10.20
2010,01,18,15,26,10.30
2010,01,18,15,27,10.30
2010,01,18,15,28,10.30
2010,01,18,15,29,10.40
2010,01,18,15,30,10.40
2010,01,18,15,31,10.40
2010,01,18,15,32,10.40
2010,01,18,15,33,10.50
2010,01,18,15,34,10.40
2010,01,18,15,35,10.40
2010,01,18,15,36,10.40
2010,01,18,15,37,10.40
2010,01,18,15,38,10.40
2010,01,18,15,39,10.40
2010,01,18,15,40,10.50
2010,01,18,15,41,10.50
2010,01,18,15,42,10.40
2010,01,18,15,43,10.40
2010,01,18,15,44,10.40
2010,01,18,15,45,10.40
2010,01,18,15,46,10.40
2010,01,18,15,47,10.40
2010,01,18,15,48,10.40
2010,01,18,15,49,10.40
2010,01,18,15,50,10.40
2010,01,18,15,51,10.40
2010,01,18,15,52,10.40
2010,01,18,15,53,10.40
2010,01,18,15,54,10.30
2010,01,18,15,55,10.30
2010,01,18,15,56,10.30
2010,01,18,15,57,10.30
2010,01,18,15,58,10.20
2010,01,18,15,59,10.20
2010,01,18,16,00,10.20
2010,01,18,16,01,10.20
2010,01,18,16,02,10.20
2010,01,18,16,03,10.20
2010,01,18,16,04,10.20
2010,01,18,16,05,10.20
2010,01,18,16,06,10.20
2010,01,18,16,07,10.20
2010,01,18,16,08,10.20
2010,01,18,16,09,10.20
2010,01,18,16,10,10.20
2010,01,18,16,11,10.20
2010,01,18,16,12,10.20
2010,01,18,16,13,10.10
2010,01,18,16,14,10.10
2010,01,18,16,15,10.10
2010,01,18,16,16,10.10
2010,01,18,16,17,10.00
2010,01,18,16,18,10.00
2010,01,18,16,19,10.00
2010,01,18,16,20,10.00
2010,01,18,16,21,9.90
2010,01,18,16,22,9.90
2010,01,18,16,23,9.90
2010,01,18,16,24,9.80
2010,01,18,16,25,9.80
2010,01,18,16,26,9.70
2010,01,18,16,27,9.70
2010,01,18,16,28,9.60
2010,01,18,16,29,9.60
2010,01,18,16,30,9.60
2010,01,18,16,31,9.50
2010,01,18,16,32,9.40
2010,01,18,16,33,9.30
2010,01,18,16,34,9.20
2010,01,18,16,35,9.10
2010,01,18,16,36,9.00
2010,01,18,16,37,9.00
2010,01,18,16,38,8.90
2010,01,18,16,39,8.90
2010,01,18,16,40,8.80
2010,01,18,16,41,8.80
2010,01,18,16,42,8.70
2010,01,18,16,43,8.70
2010,01,18,16,44,8.60
2010,01,18,16,45,8.60
2010,01,18,16,46,8.50
2010,01,18,16,47,8.50
2010,01,18,16,48,8.40
2010,01,18,16,49,8.30
2010,01,18,16,50,8.30
2010,01,18,16,51,8.20
2010,01,18,16,52,8.20
2010,01,18,16,53,8.20
2010,01,18,16,54,8.10
2010,01,18,16,55,8.10
2010,01,18,16,56,8.00
2010,01,18,16,57,8.00
2010,01,18,16,58,7.90
2010,01,18,16,59,7.90
2010,01,18,17,00,7.80
2010,01,18,17,01,7.80
2010,01,18,17,02,7.80
2010,01,18,17,03,7.80
2010,01,18,17,04,7.70
2010,01,18,17,05,7.70
2010,01,18,17,06,7.70
2010,01,18,17,07,7.70
2010,01,18,17,08,7.60
2010,01,18,17,09,7.60
2010,01,18,17,10,7.60
2010,01,18,17,11,7.50
2010,01,18,17,12,7.50
2010,01,18,17,13,7.40
2010,01,18,17,14,7.40
2010,01,18,17,15,7.40
2010,01,18,17,16,7.40
2010,01,18,17,17,7.30
2010,01,18,17,18,7.30
2010,01,18,17,19,7.30
2010,01,18,17,20,7.30
2010,01,18,17,21,7.20
2010,01,18,17,22,7.20
2010,01,18,17,23,7.20
2010,01,18,17,24,7.20
2010,01,18,17,25,7.20
2010,01,18,17,26,7.10
2010,01,18,17,27,7.10
2010,01,18,17,28,7.10
2010,01,18,17,29,7.00
2010,01,18,17,30,7.00
2010,01,18,17,31,6.90
2010,01,18,17,32,6.90
2010,01,18,17,33,6.90
2010,01,18,17,34,6.90
2010,01,18,17,35,6.90
2010,01,18,17,36,6.80
2010,01,18,17,37,6.80
2010,01,18,17,38,6.80
2010,01,18,17,39,6.70
2010,01,18,17,40,6.70
2010,01,18,17,41,6.70
2010,01,18,17,42,6.60
2010,01,18,17,43,6.60
2010,01,18,17,44,6.60
2010,01,18,17,45,6.60
2010,01,18,17,46,6.50
2010,01,18,17,47,6.50
2010,01,18,17,48,6.50
2010,01,18,17,49,6.50
2010,01,18,17,50,6.50
2010,01,18,17,51,6.50
2010,01,18,17,52,6.40
2010,01,18,17,53,6.40
2010,01,18,17,54,6.40
2010,01,18,17,55,6.30
2010,01,18,17,56,6.30
2010,01,18,17,57,6.30
2010,01,18,17,58,6.20
2010,01,18,17,59,6.20
2010,01,18,18,00,6.20
2010,01,18,18,01,6.10
2010,01,18,18,02,6.10
2010,01,18,18,03,6.00
2010,01,18,18,04,5.90
2010,01,18,18,05,5.90
2010,01,18,18,06,5.90
2010,01,18,18,07,5.90
2010,01,18,18,08,5.80
2010,01,18,18,09,5.80
2010,01,18,18,10,5.80
2010,01,18,18,11,5.80
2010,01,18,18,12,5.80
2010,01,18,18,13,5.70
2010,01,18,18,14,5.70
2010,01,18,18,15,5.70
2010,01,18,18,16,5.60
2010,01,18,18,17,5.70
2010,01,18,18,18,5.60
2010,01,18,18,19,5.60
2010,01,18,18,20,5.60
2010,01,18,18,21,5.60
2010,01,18,18,22,5.60
2010,01,18,18,23,5.60
2010,01,18,18,24,5.60
2010,01,18,18,25,5.60
2010,01,18,18,26,5.60
2010,01,18,18,27,5.60
2010,01,18,18,28,5.60
2010,01,18,18,29,5.60
2010,01,18,18,30,5.60
2010,01,18,18,31,5.60
2010,01,18,18,32,5.60
2010,01,18,18,33,5.60
2010,01,18,18,34,5.60
2010,01,18,18,35,5.60
2010,01,18,18,36,5.50
2010,01,18,18,37,5.50
2010,01,18,18,38,5.50
2010,01,18,18,39,5.50
2010,01,18,18,40,5.50
2010,01,18,18,41,5.50
2010,01,18,18,42,5.60
2010,01,18,18,43,5.60
2010,01,18,18,44,5.60
2010,01,18,18,45,5.60
2010,01,18,18,46,5.50
2010,01,18,18,47,5.50
2010,01,18,18,48,5.50
2010,01,18,18,49,5.40
2010,01,18,18,50,5.40
2010,01,18,18,51,5.40
2010,01,18,18,52,5.30
2010,01,18,18,53,5.30
2010,01,18,18,54,5.30
2010,01,18,18,55,5.30
2010,01,18,18,56,5.20
2010,01,18,18,57,5.20
2010,01,18,18,58,5.20
2010,01,18,18,59,5.20
2010,01,18,19,00,5.20
2010,01,18,19,01,5.10
2010,01,18,19,02,5.10
2010,01,18,19,03,5.10
2010,01,18,19,04,5.10
2010,01,18,19,05,5.10
2010,01,18,19,06,5.10
2010,01,18,19,07,5.10
2010,01,18,19,08,5.10
2010,01,18,19,09,5.00
2010,01,18,19,10,5.00
2010,01,18,19,11,5.00
2010,01,18,19,12,4.90
2010,01,18,19,13,4.90
2010,01,18,19,14,4.90
2010,01,18,19,15,4.90
2010,01,18,19,16,4.90
2010,01,18,19,17,4.90
2010,01,18,19,18,4.90
2010,01,18,19,19,4.90
2010,01,18,19,20,4.90
2010,01,18,19,21,4.80
2010,01,18,19,22,4.80
2010,01,18,19,23,4.80
2010,01,18,19,24,4.80
2010,01,18,19,25,4.80
2010,01,18,19,26,4.80
2010,01,18,19,27,4.80
2010,01,18,19,28,4.70
2010,01,18,19,29,4.70
2010,01,18,19,30,4.70
2010,01,18,19,31,4.70
2010,01,18,19,32,4.70
2010,01,18,19,33,4.70
2010,01,18,19,34,4.70
2010,01,18,19,35,4.70
2010,01,18,19,36,4.70
2010,01,18,19,37,4.70
2010,01,18,19,38,4.70
2010,01,18,19,39,4.70
2010,01,18,19,40,4.70
2010,01,18,19,41,4.70
2010,01,18,19,42,4.70
2010,01,18,19,43,4.70
2010,01,18,19,44,4.60
2010,01,18,19,45,4.60
2010,01,18,19,46,4.60
2010,01,18,19,47,4.60
2010,01,18,19,48,4.60
2010,01,18,19,49,4.60
2010,01,18,19,50,4.60
2010,01,18,19,51,4.60
2010,01,18,19,52,4.60
2010,01,18,19,53,4.60
2010,01,18,19,54,4.60
2010,01,18,19,55,4.60
2010,01,18,19,56,4.60
2010,01,18,19,57,4.60
2010,01,18,19,58,4.60
2010,01,18,19,59,4.60
2010,01,18,20,00,4.50
2010,01,18,20,01,4.50
2010,01,18,20,02,4.50
2010,01,18,20,03,4.50
2010,01,18,20,04,4.50
2010,01,18,20,05,4.50
2010,01,18,20,06,4.50
2010,01,18,20,07,4.50
2010,01,18,20,08,4.50
2010,01,18,20,09,4.50
2010,01,18,20,10,4.50
2010,01,18,20,11,4.50
2010,01,18,20,12,4.50
2010,01,18,20,13,4.50
2010,01,18,20,14,4.50
2010,01,18,20,15,4.50
2010,01,18,20,16,4.50
2010,01,18,20,17,4.40
2010,01,18,20,18,4.40
2010,01,18,20,19,4.40
2010,01,18,20,20,4.40
2010,01,18,20,21,4.40
2010,01,18,20,22,4.40
2010,01,18,20,23,4.40
2010,01,18,20,24,4.40
2010,01,18,20,25,4.40
2010,01,18,20,26,4.40
2010,01,18,20,27,4.40
2010,01,18,20,28,4.40
2010,01,18,20,29,4.40
2010,01,18,20,30,4.40
2010,01,18,20,31,4.40
2010,01,18,20,32,4.40
2010,01,18,20,33,4.40
2010,01,18,20,34,4.40
2010,01,18,20,35,4.30
2010,01,18,20,36,4.30
2010,01,18,20,37,4.30
2010,01,18,20,38,4.30
2010,01,18,20,39,4.30
2010,01,18,20,40,4.30
2010,01,18,20,41,4.30
2010,01,18,20,42,4.30
2010,01,18,20,43,4.30
2010,01,18,20,44,4.30
2010,01,18,20,45,4.30
2010,01,18,20,46,4.20
2010,01,18,20,47,4.20
2010,01,18,20,48,4.20
2010,01,18,20,49,4.20
2010,01,18,20,50,4.20
2010,01,18,20,51,4.20
2010,01,18,20,52,4.20
2010,01,18,20,53,4.20
2010,01,18,20,54,4.10
2010,01,18,20,55,4.10
2010,01,18,20,56,4.10
2010,01,18,20,57,4.10
2010,01,18,20,58,4.10
2010,01,18,20,59,4.10
2010,01,18,21,00,4.10
2010,01,18,21,01,4.10
2010,01,18,21,02,4.10
2010,01,18,21,03,4.10
2010,01,18,21,04,4.00
2010,01,18,21,05,4.00
2010,01,18,21,06,4.00
2010,01,18,21,07,4.00
2010,01,18,21,08,4.00
2010,01,18,21,09,4.00
2010,01,18,21,10,4.00
2010,01,18,21,11,4.00
2010,01,18,21,12,4.00
2010,01,18,21,13,4.00
2010,01,18,21,14,4.10
2010,01,18,21,15,4.10
2010,01,18,21,16,4.10
2010,01,18,21,17,4.10
2010,01,18,21,18,4.10
2010,01,18,21,19,4.10
2010,01,18,21,20,4.00
2010,01,18,21,21,4.00
2010,01,18,21,22,4.00
2010,01,18,21,23,4.00
2010,01,18,21,24,4.00
2010,01,18,21,25,4.00
2010,01,18,21,26,4.00
2010,01,18,21,27,3.90
2010,01,18,21,28,3.90
2010,01,18,21,29,4.00
2010,01,18,21,30,4.00
2010,01,18,21,31,4.00
2010,01,18,21,32,4.00
2010,01,18,21,33,4.00
2010,01,18,21,34,4.00
2010,01,18,21,35,4.00
2010,01,18,21,36,4.00
2010,01,18,21,37,4.00
2010,01,18,21,38,4.00
2010,01,18,21,39,4.00
2010,01,18,21,40,4.00
2010,01,18,21,41,3.90
2010,01,18,21,42,3.90
2010,01,18,21,43,3.90
2010,01,18,21,44,3.90
2010,01,18,21,45,3.90
2010,01,18,21,46,3.90
2010,01,18,21,47,3.90
2010,01,18,21,48,3.90
2010,01,18,21,49,3.90
2010,01,18,21,50,3.90
2010,01,18,21,51,3.90
2010,01,18,21,52,3.80
2010,01,18,21,53,3.80
2010,01,18,21,54,3.80
2010,01,18,21,55,3.80
2010,01,18,21,56,3.80
2010,01,18,21,57,3.80
2010,01,18,21,58,3.80
2010,01,18,21,59,3.80
2010,01,18,22,00,3.80
2010,01,18,22,01,3.80
2010,01,18,22,02,3.80
2010,01,18,22,03,3.80
2010,01,18,22,04,3.80
2010,01,18,22,05,3.80
2010,01,18,22,06,3.80
2010,01,18,22,07,3.80
2010,01,18,22,08,3.80
2010,01,18,22,09,3.80
2010,01,18,22,10,3.80
2010,01,18,22,11,3.80
2010,01,18,22,12,3.80
2010,01,18,22,13,3.80
2010,01,18,22,14,3.80
2010,01,18,22,15,3.80
2010,01,18,22,16,3.80
2010,01,18,22,17,3.80
2010,01,18,22,18,3.80
2010,01,18,22,19,3.80
2010,01,18,22,20,3.80
2010,01,18,22,21,3.80
2010,01,18,22,22,3.80
2010,01,18,22,23,3.80
2010,01,18,22,24,3.80
2010,01,18,22,25,3.80
2010,01,18,22,26,3.80
2010,01,18,22,27,3.80
2010,01,18,22,28,3.80
2010,01,18,22,29,3.80
2010,01,18,22,30,3.80
2010,01,18,22,31,3.80
2010,01,18,22,32,3.80
2010,01,18,22,33,3.80
2010,01,18,22,34,3.80
2010,01,18,22,35,3.80
2010,01,18,22,36,3.80
2010,01,18,22,37,3.80
2010,01,18,22,38,3.80
2010,01,18,22,39,3.80
2010,01,18,22,40,3.80
2010,01,18,22,41,3.80
2010,01,18,22,42,3.80
2010,01,18,22,43,3.80
2010,01,18,22,44,3.80
2010,01,18,22,45,3.80
2010,01,18,22,46,3.80
2010,01,18,22,47,3.80
2010,01,18,22,48,3.80
2010,01,18,22,49,3.80
2010,01,18,22,50,3.80
2010,01,18,22,51,3.80
2010,01,18,22,52,3.80
2010,01,18,22,53,3.80
2010,01,18,22,54,3.70
2010,01,18,22,55,3.70
2010,01,18,22,56,3.70
2010,01,18,22,57,3.70
2010,01,18,22,58,3.70
2010,01,18,22,59,3.70
2010,01,18,23,00,3.70
2010,01,18,23,01,3.70
2010,01,18,23,02,3.70
2010,01,18,23,03,3.70
2010,01,18,23,04,3.70
2010,01,18,23,05,3.70
2010,01,18,23,06,3.80
2010,01,18,23,07,3.80
2010,01,18,23,08,3.80
2010,01,18,23,09,3.80
2010,01,18,23,10,3.80
2010,01,18,23,11,3.80
2010,01,18,23,12,3.80
2010,01,18,23,13,3.80
2010,01,18,23,14,3.80
2010,01,18,23,15,3.80
2010,01,18,23,16,3.80
2010,01,18,23,17,3.80
2010,01,18,23,18,3.80
2010,01,18,23,19,3.80
2010,01,18,23,20,3.80
2010,01,18,23,21,3.80
2010,01,18,23,22,3.80
2010,01,18,23,23,3.80
2010,01,18,23,24,3.80
2010,01,18,23,25,3.80
2010,01,18,23,26,3.80
2010,01,18,23,27,3.80
2010,01,18,23,28,3.80
2010,01,18,23,29,3.80
2010,01,18,23,30,3.80
2010,01,18,23,31,3.80
2010,01,18,23,32,3.80
2010,01,18,23,33,3.80
2010,01,18,23,34,3.80
2010,01,18,23,35,3.80
2010,01,18,23,36,3.80
2010,01,18,23,37,3.80
2010,01,18,23,38,3.80
2010,01,18,23,39,3.80
2010,01,18,23,40,3.80
2010,01,18,23,41,3.80
2010,01,18,23,42,3.80
2010,01,18,23,43,3.80
2010,01,18,23,44,3.80
2010,01,18,23,45,3.80
2010,01,18,23,46,3.80
2010,01,18,23,47,3.80
2010,01,18,23,48,3.70
2010,01,18,23,49,3.70
2010,01,18,23,50,3.70
2010,01,18,23,51,3.70
2010,01,18,23,52,3.70
2010,01,18,23,53,3.70
2010,01,18,23,54,3.70
2010,01,18,23,55,3.60
2010,01,18,23,56,3.60
2010,01,18,23,57,3.60
2010,01,18,23,58,3.60
2010,01,18,23,59,3.60
